EW2082 Weather Reports


Display with metric or nautical units.
time (UTC)temp
F
wind
direction
speed
MPH
gust
MPH
rain 1hr
in
rain 24hr
in
rain mn
in
humidity
%
barometer
mb
20260906220005 73 276 0.0 2.0 0.00 0.00 0.82 95 1012.8
20260906215005 72 266 0.0 2.0 0.00 0.00 0.82 95 1012.8
20260906214005 72 51 0.0 1.0 0.00 0.00 0.82 95 1012.8
20260906213004 72 51 0.0 1.0 0.00 0.00 0.82 95 1012.8
20260906212005 71 51 0.0 1.0 0.00 0.00 0.82 95 1012.7
20260906211004 71 268 0.0 2.0 0.00 0.00 0.82 95 1012.6
20260906210005 71 37 0.0 0.0 0.00 0.00 0.82 95 1013.1
20260906205004 71 37 0.0 0.0 0.00 0.00 0.82 95 1012.9
20260906204006 70 30 0.0 0.0 0.00 0.00 0.82 95 1012.6
20260906203006 70 72 0.0 0.0 0.00 0.00 0.81 95 1013.0
20260906202005 70 59 0.0 0.0 0.00 0.00 0.81 95 1013.2
20260906200006 70 49 0.0 0.0 0.00 0.00 0.81 95 1013.7
20260906195005 70 302 0.0 1.0 0.00 0.00 0.81 95 1013.9
20260906194004 69 30 0.0 1.0 0.00 0.00 0.81 95 1014.2
20260906193005 69 298 0.0 0.0 0.00 0.00 0.81 95 1014.4
20260906192005 69 313 0.0 1.0 0.00 0.00 0.81 95 1014.5
20260906190005 69 63 0.0 1.0 0.00 0.00 0.80 95 1014.1
20260906185004 68 338 0.0 0.0 0.00 0.00 0.79 95 1014.4
20260906184004 68 324 0.0 0.0 0.00 0.00 0.79 95 1014.9
20260906183004 68 324 0.0 0.0 0.00 0.00 0.78 95 1015.2
20260906182006 67 324 0.0 1.0 0.00 0.00 0.78 95 1015.2
20260906181004 67 27 0.0 0.0 0.00 0.00 0.77 95 1015.3
20260906180005 67 27 0.0 3.0 0.00 0.00 0.76 94 1015.2
20260906175004 67 41 0.0 1.0 0.00 0.00 0.73 94 1015.1
20260906174004 67 32 0.0 1.0 0.00 0.00 0.70 94 1015.5
20260906173004 67 16 0.0 2.0 0.00 0.00 0.66 94 1015.4
20260906171003 67 42 0.0 0.0 0.00 0.00 0.42 93 1015.4
20260906170004 67 42 0.0 0.0 0.00 0.00 0.31 94 1015.2
20260906165004 67 42 0.0 2.0 0.00 0.00 0.28 93 1014.5
20260906164004 67 41 0.0 2.0 0.00 0.00 0.25 93 1014.1
20260906163003 67 23 0.0 0.0 0.00 0.00 0.23 93 1014.0
20260906162004 66 23 0.0 1.0 0.00 0.00 0.22 92 1014.1
20260906161005 67 259 0.0 0.0 0.00 0.00 0.20 92 1014.4
20260906154004 67 259 0.0 0.0 0.00 0.00 0.10 92 1013.8
20260906153003 67 259 0.0 2.0 0.00 0.00 0.10 91 1013.6
20260906152003 67 237 0.0 0.0 0.00 0.00 0.09 92 1013.3
20260906151003 66 237 0.0 0.0 0.00 0.00 0.09 91 1013.1
20260906150004 66 237 0.0 0.0 0.00 0.00 0.09 92 1013.2
20260906145004 66 237 0.0 0.0 0.00 0.00 0.08 91 1013.0
20260906143003 66 237 0.0 0.0 0.00 0.00 0.08 89 1013.0
20260906142004 66 237 0.0 0.0 0.00 0.00 0.07 88 1013.3
20260906141003 66 237 0.0 1.0 0.00 0.00 0.07 86 1013.3
20260906140005 66 87 0.0 1.0 0.00 0.00 0.07 84 1013.3
20260906135003 67 24 0.0 3.0 0.00 0.00 0.07 83 1012.8
20260906134003 69 258 0.0 4.0 0.00 0.00 0.05 86 1012.7
20260906132003 69 285 0.0 1.0 0.00 0.00 0.03 88 1013.0
20260906131004 69 285 0.0 1.0 0.00 0.00 0.03 87 1012.8
20260906130005 69 283 0.0 3.0 0.00 0.00 0.03 86 1012.8
20260906125004 69 301 0.0 3.0 0.00 0.00 0.03 84 1012.7
20260906124003 70 309 2.0 5.0 0.00 0.00 0.03 86 1012.5
20260906122003 70 283 0.0 0.0 0.00 0.00 0.02 80 1012.2
20260906121004 71 283 0.0 0.0 0.00 0.00 0.02 74 1011.9
20260906120005 71 283 0.0 0.0 0.00 0.00 0.00 69 1011.6
20260906115003 71 283 0.0 0.0 0.00 0.00 0.00 66 1011.6
20260906114004 71 283 0.0 0.0 0.00 0.00 0.00 66 1011.5
20260906113005 71 283 0.0 0.0 0.00 0.00 0.00 66 1011.3
20260906111004 71 283 0.0 0.0 0.00 0.00 0.00 73 1011.6
20260906110005 71 283 0.0 0.0 0.00 0.00 0.00 74 1011.5
20260906105004 71 283 0.0 0.0 0.00 0.00 0.00 75 1011.5
20260906103004 71 283 0.0 0.0 0.00 0.00 0.00 76 1011.6
20260906102004 70 283 0.0 0.0 0.00 0.00 0.00 77 1011.5
20260906101004 70 283 0.0 0.0 0.00 0.00 0.00 78 1011.7
20260906100005 70 283 0.0 0.0 0.00 0.00 0.00 79 1011.5
20260906095006 70 283 0.0 0.0 0.00 0.00 0.00 79 1011.5
20260906094004 70 283 0.0 0.0 0.00 0.00 0.00 79 1011.6
20260906092004 70 283 0.0 0.0 0.00 0.00 0.00 80 1011.7
20260906091005 70 283 0.0 0.0 0.00 0.00 0.00 80 1011.7
20260906090005 70 283 0.0 0.0 0.00 0.00 0.00 82 1011.7
20260906085004 70 283 0.0 0.0 0.00 0.00 0.00 82 1011.7
20260906084004 70 283 0.0 0.0 0.00 0.00 0.00 82 1011.8
20260906083004 70 283 0.0 0.0 0.00 0.00 0.00 81 1011.9
20260906082004 70 283 0.0 0.0 0.00 0.00 0.00 81 1011.9
20260906081004 70 283 0.0 0.0 0.00 0.00 0.00 79 1012.0
20260906080005 70 283 0.0 0.0 0.00 0.00 0.00 78 1012.0
20260906075004 69 283 0.0 0.0 0.00 0.00 0.00 77 1011.9
20260906074004 69 283 0.0 0.0 0.00 0.00 0.00 76 1012.0
20260906073004 69 283 0.0 0.0 0.00 0.00 0.00 77 1012.0
20260906071004 70 283 0.0 0.0 0.00 0.00 0.00 79 1012.0
20260906070006 71 283 0.0 0.0 0.00 0.00 0.00 80 1011.9
20260906065004 71 283 0.0 0.0 0.00 0.00 0.00 81 1011.7
20260906064004 71 283 0.0 0.0 0.00 0.00 0.00 80 1011.8
20260906062004 71 283 0.0 0.0 0.00 0.00 0.00 81 1011.9
20260906061004 71 283 0.0 0.0 0.00 0.00 0.00 81 1012.0
20260906060004 72 283 0.0 1.0 0.00 0.00 0.00 82 1012.0
20260906055004 72 278 0.0 1.0 0.00 0.00 0.00 82 1011.9
20260906052004 72 276 0.0 1.0 0.00 0.00 0.00 83 1012.2
20260906051003 72 282 0.0 1.0 0.00 0.00 0.00 84 1012.3
20260906050004 72 282 0.0 1.0 0.00 0.00 0.00 83 1012.3
20260906045004 72 283 0.0 1.0 0.00 0.00 0.00 83 1012.3
20260906043004 72 4 0.0 1.0 0.00 0.00 0.00 81 1012.2
20260906042004 72 333 1.0 1.0 0.00 0.00 0.00 81 1012.2
20260906041004 72 4 0.0 1.0 0.00 0.00 0.00 82 1012.1
20260906040004 72 273 0.0 3.0 0.00 0.00 0.00 83 1012.1
20260906035003 72 91 0.0 2.0 0.00 0.00 0.00 83 1012.0
20260906033004 73 43 0.0 2.0 0.00 0.00 0.00 83 1011.8
20260906032003 73 321 0.0 2.0 0.00 0.00 0.00 82 1011.7
20260906031003 73 6 0.0 1.0 0.00 0.00 0.00 82 1011.6
20260906030004 73 295 0.0 2.0 0.00 0.00 0.00 82 1011.6
20260906024003 74 332 0.0 2.0 0.00 0.00 0.00 82 1011.4
20260906023004 74 30 0.0 2.0 0.00 0.00 0.00 81 1011.5
20260906020004 75 246 1.0 4.0 0.00 0.00 0.00 78 1011.4
20260906015004 76 18 0.0 3.0 0.00 0.00 0.00 78 1011.5
20260906014004 76 263 0.0 2.0 0.00 0.00 0.00 76 1011.4
20260906013004 78 356 0.0 2.0 0.00 0.00 0.00 74 1011.4
20260906012005 78 276 0.0 7.0 0.00 0.00 0.00 70 1011.2
20260906005003 78 345 0.0 5.0 0.00 0.00 0.00 71 1011.2
20260906004003 79 357 0.0 4.0 0.00 0.00 0.00 69 1011.2
20260906003003 80 56 0.0 2.0 0.00 0.00 0.00 67 1011.0
20260906002004 80 293 0.0 4.0 0.00 0.00 0.00 65 1011.1
20260906001003 81 20 0.0 1.0 0.00 0.00 0.00 63 1011.0
20260906000004 82 81 0.0 5.0 0.00 0.00 0.00 59 1011.0
20260905235003 84 39 0.0 2.0 0.00 0.00 0.00 55 1011.0
20260905234003 85 13 1.0 4.0 0.00 0.00 0.00 52 1010.9
20260905232003 87 263 0.0 3.0 0.00 0.00 0.00 51 1010.9
20260905231003 87 49 0.0 2.0 0.00 0.00 0.00 49 1011.0
20260905230005 88 25 0.0 0.0 0.00 0.00 0.00 46 1011.1
20260905225005 88 256 0.0 1.0 0.00 0.00 0.00 43 1011.2
20260905224004 88 70 0.0 2.0 0.00 0.00 0.00 47 1011.3
20260905223005 89 15 0.0 3.0 0.00 0.00 0.00 48 1011.4
20260905222004 88 332 0.0 1.0 0.00 0.00 0.00 50 1011.5
20260905221004 88 13 0.0 4.0 0.00 0.00 0.00 48 1011.6